This demonstration page uses our WeatherBlox Daily Observations layout. Learn more.

Left ArrowRight Arrow

34.02893, -84.19858

Hourly Observations for August 14, 2022

Temp ( °F °C ) Dew Point ( °F °C ) Humidity (%) Winds ( mph kmh ) Pressure ( in mb ) Visibility ( mi km ) Precip ( " mm )
12:53 am 00:53 Clear 69 20.6 66 18.9 90 90 Calm 30.05 1018 10 16 0.00 0.00
1:53 am 01:53 Partly Cloudy 68 20 66 18.9 93 93 Calm 30.04 1017 10 16 0.00 0.00
2:53 am 02:53 Clear 68 20 66 18.9 93 93 Calm 30.02 1017 9 14 0.00 0.00
3:53 am 03:53 Clear 67 19.4 66 18.9 97 97 Calm 30.02 1017 8 13 0.00 0.00
4:53 am 04:53 Clear 67 19.4 65 18.3 93 93 Calm 30.01 1016 8 13 0.00 0.00
5:53 am 05:53 Clear with Mist and Fog 66 18.9 65 18.3 96 96 Calm 30.01 1016 6 10 0.00 0.00
6:53 am 06:53 Clear 66 18.9 65 18.3 96 96 Calm 30.01 1016 7 11 0.00 0.00
7:53 am 07:53 Sunny 68 20 67 19.4 96 96 Calm 30.02 1017 8 13 0.00 0.00
8:53 am 08:53 Mostly Cloudy 72 22.2 67 19.4 84 84 Calm 30.04 1017 10 16 0.00 0.00
9:53 am 09:53 Sunny 76 24.4 66 18.9 71 71 S 3 6 30.04 1017 10 16 0.00 0.00
10:53 am 10:53 Sunny 80 26.7 67 19.4 64 64 S 5 7 30.04 1017 10 16 0.00 0.00
11:53 am 11:53 Mostly Cloudy 82 27.8 67 19.4 60 60 WSW 6 9 30.04 1017 10 16 0.00 0.00
12:53 pm 12:53 Mostly Cloudy 82 27.8 67 19.4 60 60 SE 5 7 30.02 1017 10 16 0.00 0.00
1:53 pm 13:53 Mostly Sunny 85 29.4 67 19.4 55 55 VRB 7 11 30.00 1016 10 16 0.00 0.00
2:53 pm 14:53 Sunny 86 30 67 19.4 53 53 SW 9 15 29.99 1016 10 16 0.00 0.00
3:53 pm 15:53 Mostly Cloudy 87 30.6 67 19.4 51 51 undefined N/A 29.97 1015 10 16 0.00 0.00
4:53 pm 16:53 Mostly Cloudy 84 28.9 66 18.9 55 55 S 6 9 29.96 1015 10 16 0.00 0.00
5:53 pm 17:53 Cloudy 84 28.9 67 19.4 57 57 S 5 7 29.95 1014 10 16 0.00 0.00
6:53 pm 18:53 Mostly Cloudy 85 29.4 67 19.4 55 55 SSW 7 11 29.93 1014 10 16 0.00 0.00
7:53 pm 19:53 Mostly Sunny 81 27.2 67 19.4 62 62 SW 5 7 29.94 1014 10 16 0.00 0.00
8:53 pm 20:53 Clear 79 26.1 66 18.9 65 65 SW 6 9 29.93 1014 10 16 0.00 0.00
9:53 pm 21:53 Clear 76 24.4 68 20 77 77 W 3 6 29.95 1014 10 16 0.00 0.00
10:53 pm 22:53 Clear 75 23.9 68 20 79 79 Calm 29.94 1014 10 16 0.00 0.00
11:53 pm 23:53 Clear 72 22.2 69 20.6 91 91 Calm 29.94 1014 10 16 0.00 0.00

Powered by AerisWeather